Location: Unspecified
(50.7693°N, 0.0000°E)
Time: 17:33:34
(UTC+00:00)

SR - Pass Details

Date: 28 June 2019
Orbit: 578 x 878 km, 66.7° (Epoch: 16 August)

Event Time Altitude Azimuth Distance (km) Brightness Sun altitude
Rises 10:09:49 0° 323° (NW) 2,990 ? 54.8°
Reaches altitude 10° 10:12:02 10° 325° (NW) 2,117 ? 55.1°
Maximum altitude 10:16:51 73° 51° (NE) 755 ? 55.7°
Drops below altitude 10° 10:22:07 10° 136° (SE) 2,304 ? 56.2°
Sets 10:24:37 0° 138° (SE) 3,275 ? 56.5°
